{"data":{"norad_id":60282,"intl_designator":"2024-132E","name":"STARLINK-32113","alt_names":[],"object_type":"PAYLOAD","status":"ACTIVE","operator":null,"country":"US","launch_date":"2024-07-28","launch_site_code":"AFETR","launch_vehicle":null,"mission":null,"orbit_class":"UNKNOWN","rcs_meters":null,"size_class":null,"mass_kg":null,"dimensions":null,"purposes":["comms"],"wikipedia_slug":null,"has_3d_model":false,"image_url":null,"decayed_at":null,"tle_current":{"epoch":"2026-09-21T14:12:25.127136Z","epoch_age_seconds":87169,"freshness":"FRESH","line1":"1 60282U 24132E   26264.59195749 -.00000118  00000+0  76623-5 0  9998","line2":"2 60282  53.1583 220.3779 0001592  91.6258 268.4927 15.34384204121582","mean_motion":15.34384204,"eccentricity":0.0001592,"inclination_deg":53.1583,"raan_deg":220.3779,"arg_perigee_deg":91.6258,"mean_anomaly_deg":268.4927,"bstar":7.6623e-6,"rev_number":12158,"period_min":93.848724214317,"perigee_km":461.66112041014,"apogee_km":463.83925889132,"semimajor_km":6840.8871896507,"source":"CELESTRAK","updated_at":"2026-09-22T09:00:49.191898Z"}}}